,,PA_Meas_PMT16A,,PR_Meas_QMR101_102,,RH_Meas_QMH101,,SR_Meas_QMS101,,TA_Meas_QMH101,,GenWind,,GenWind,
time,status,PA,status,PR,status,RH,status,SR,status,TA,status,DirAvg,status,SpdAvg,
2015-06-28, 07:07:04,VALID,921.394,VALID,0,VALID,79.9315,VALID,83.8041,VALID,18.5734,VALID,135,VALID,0,
2015-06-28, 07:08:04,VALID,921.408,VALID,0,VALID,79.5427,VALID,86.1678,VALID,18.6109,VALID,135,VALID,0,
2015-06-28, 07:09:04,VALID,921.404,VALID,0,VALID,79.2149,VALID,88.5315,VALID,18.6694,VALID,136,VALID,0,
2015-06-28, 07:10:04,VALID,921.447,VALID,0,VALID,79.314,VALID,90.7878,VALID,18.7279,VALID,135,VALID,0,
2015-06-28, 07:11:04,VALID,921.488,VALID,0,VALID,79.314,VALID,93.2589,VALID,18.7474,VALID,135,VALID,0,
2015-06-28, 07:12:04,VALID,921.483,VALID,0,VALID,78.6889,VALID,95.8375,VALID,18.8254,VALID,136,VALID,0,
2015-06-28, 07:13:04,VALID,921.479,VALID,0,VALID,78.0866,VALID,98.4161,VALID,18.9034,VALID,135,VALID,0,
2015-06-28, 07:14:04,VALID,921.496,VALID,0,VALID,77.9723,VALID,101.102,VALID,19.0203,VALID,133,VALID,0.120312,
2015-06-28, 07:15:04,VALID,921.509,VALID,0,VALID,77.5606,VALID,103.573,VALID,19.1193,VALID,133,VALID,0,
2015-06-28, 07:16:04,VALID,921.499,VALID,0,VALID,77.4387,VALID,106.259,VALID,19.1763,VALID,133,VALID,0,
2015-06-28, 07:17:04,VALID,921.523,VALID,0,VALID,77.3472,VALID,109.16,VALID,19.2153,VALID,130,VALID,0,
2015-06-28, 07:18:04,VALID,921.531,VALID,0,VALID,77.5911,VALID,111.846,VALID,19.2738,VALID,131,VALID,0,
2015-06-28, 07:19:04,VALID,921.505,VALID,0,VALID,77.9647,VALID,114.317,VALID,19.3323,VALID,131,VALID,0,
2015-06-28, 07:20:04,VALID,921.531,VALID,0,VALID,77.4082,VALID,116.681,VALID,19.3518,VALID,130,VALID,0,
2015-06-28, 07:21:04,VALID,921.54,VALID,0,VALID,77.614,VALID,119.475,VALID,19.3713,VALID,130,VALID,0,
2015-06-28, 07:22:04,VALID,921.564,VALID,0,VALID,78.0866,VALID,122.483,VALID,19.3713,VALID,130,VALID,0,
2015-06-28, 07:23:04,VALID,921.588,VALID,0,VALID,78.0333,VALID,125.599,VALID,19.4118,VALID,135,VALID,0,
2015-06-28, 07:24:04,VALID,921.64,VALID,0,VALID,78.4221,VALID,128.607,VALID,19.4118,VALID,135,VALID,0,
2015-06-28, 07:25:04,VALID,921.675,VALID,0,VALID,78.666,VALID,131.508,VALID,19.4298,VALID,133,VALID,0,
2015-06-28, 07:26:04,VALID,921.667,VALID,0,VALID,78.6889,VALID,134.409,VALID,19.4703,VALID,131,VALID,0,
2015-06-28, 07:27:04,VALID,921.712,VALID,0,VALID,78.727,VALID,137.632,VALID,19.5078,VALID,130,VALID,0,
2015-06-28, 07:28:04,VALID,921.712,VALID,0,VALID,78.3306,VALID,140.64,VALID,19.5663,VALID,127,VALID,0,
2015-06-28, 07:29:04,VALID,921.747,VALID,0,VALID,78.9938,VALID,143.434,VALID,19.6053,VALID,123,VALID,0,
2015-06-28, 07:30:04,VALID,921.716,VALID,0,VALID,78.1476,VALID,146.335,VALID,19.6428,VALID,132,VALID,0,
2015-06-28, 07:31:04,VALID,921.767,VALID,0,VALID,78.3306,VALID,149.236,VALID,19.7013,VALID,130,VALID,0.00195313,
2015-06-28, 07:32:04,VALID,921.805,VALID,0,VALID,77.7588,VALID,152.137,VALID,19.7208,VALID,134,VALID,0,
2015-06-28, 07:33:04,VALID,921.801,VALID,0,VALID,77.9799,VALID,155.038,VALID,19.7403,VALID,140,VALID,0,
2015-06-28, 07:34:04,VALID,921.807,VALID,0,VALID,77.1871,VALID,158.153,VALID,19.7598,VALID,136,VALID,0.219141,
2015-06-28, 07:35:04,VALID,921.821,VALID,0,VALID,76.3942,VALID,161.484,VALID,19.7988,VALID,133,VALID,0.839063,
2015-06-28, 07:36:04,VALID,921.843,VALID,0,VALID,76.3942,VALID,164.707,VALID,19.8573,VALID,129,VALID,0.0195313,
2015-06-28, 07:37:04,VALID,921.844,VALID,0,VALID,76.7907,VALID,167.823,VALID,19.9158,VALID,135,VALID,0,
2015-06-28, 07:38:04,VALID,921.899,VALID,0,VALID,75.8301,VALID,170.617,VALID,19.9953,VALID,137,VALID,0.0683594,
2015-06-28, 07:39:04,VALID,921.906,VALID,0,VALID,76.2647,VALID,173.732,VALID,20.0328,VALID,140,VALID,0,
2015-06-28, 07:40:04,VALID,921.905,VALID,0,VALID,75.3194,VALID,177.063,VALID,20.1123,VALID,140,VALID,0,
2015-06-28, 07:41:04,VALID,921.922,VALID,0,VALID,75.2584,VALID,180.394,VALID,20.1513,VALID,140,VALID,0.295703,
2015-06-28, 07:42:04,VALID,921.935,VALID,0,VALID,75.9978,VALID,183.724,VALID,20.1903,VALID,134,VALID,0,
2015-06-28, 07:43:04,VALID,921.965,VALID,0,VALID,75.7691,VALID,186.84,VALID,20.2668,VALID,134,VALID,0,
2015-06-28, 07:44:04,VALID,921.985,VALID,0,VALID,75.5633,VALID,190.171,VALID,20.3854,VALID,135,VALID,0,
2015-06-28, 07:45:04,VALID,922.033,VALID,0,VALID,74.8391,VALID,193.072,VALID,20.4813,VALID,129,VALID,0,
2015-06-28, 07:46:04,VALID,922.005,VALID,0,VALID,74.9077,VALID,195.758,VALID,20.6179,VALID,123,VALID,0,
2015-06-28, 07:47:04,VALID,922.05,VALID,0,VALID,75.7615,VALID,198.444,VALID,20.7154,VALID,123,VALID,0,
2015-06-28, 07:48:04,VALID,922.038,VALID,0,VALID,76.6992,VALID,201.774,VALID,20.8129,VALID,123,VALID,0,
2015-06-28, 07:49:04,VALID,922.049,VALID,0,VALID,76.3866,VALID,204.568,VALID,20.9284,VALID,119,VALID,0,
2015-06-28, 07:50:04,VALID,922.063,VALID,0,VALID,74.5036,VALID,207.684,VALID,21.086,VALID,120,VALID,0,
2015-06-28, 07:51:04,VALID,922.083,VALID,0,VALID,74.0844,VALID,210.8,VALID,21.1836,VALID,123,VALID,0,
2015-06-28, 07:52:04,VALID,922.086,VALID,0,VALID,74.0996,VALID,214.453,VALID,21.3201,VALID,125,VALID,0,
2015-06-28, 07:53:04,VALID,922.116,VALID,0,VALID,73.4592,VALID,218.106,VALID,21.4372,VALID,125,VALID,0,
2015-06-28, 07:54:04,VALID,922.116,VALID,0,VALID,72.9408,VALID,221.329,VALID,21.6128,VALID,118,VALID,0,
2015-06-28, 07:55:04,VALID,922.131,VALID,0,VALID,74.6561,VALID,224.337,VALID,21.7493,VALID,118,VALID,0,
2015-06-28, 07:56:04,VALID,922.103,VALID,0,VALID,73.1924,VALID,227.56,VALID,21.8079,VALID,119,VALID,0,
2015-06-28, 07:57:04,VALID,922.163,VALID,0,VALID,72.0565,VALID,230.569,VALID,21.7883,VALID,118,VALID,0,
2015-06-28, 07:58:04,VALID,922.173,VALID,0,VALID,72.5825,VALID,233.47,VALID,21.8062,VALID,118,VALID,0,
2015-06-28, 07:59:04,VALID,922.171,VALID,0,VALID,73.6879,VALID,236.908,VALID,21.9054,VALID,118,VALID,0,
2015-06-28, 08:00:04,VALID,922.174,VALID,0,VALID,72.1328,VALID,239.916,VALID,22.0242,VALID,118,VALID,0,
2015-06-28, 08:01:04,VALID,922.21,VALID,0,VALID,72.6207,VALID,242.71,VALID,22.1591,VALID,119,VALID,0,
2015-06-28, 08:02:04,VALID,922.205,VALID,0,VALID,69.7771,VALID,246.04,VALID,22.2762,VALID,118,VALID,0,
2015-06-28, 08:03:04,VALID,922.209,VALID,0,VALID,70.3794,VALID,249.049,VALID,22.395,VALID,118,VALID,0,
2015-06-28, 08:04:04,VALID,922.187,VALID,0,VALID,70.8749,VALID,252.379,VALID,22.5299,VALID,118,VALID,0,
2015-06-28, 08:05:04,VALID,922.174,VALID,0,VALID,68.7098,VALID,255.602,VALID,22.6274,VALID,118,VALID,0,
2015-06-28, 08:06:04,VALID,922.146,VALID,0,VALID,69.2054,VALID,259.148,VALID,22.6665,VALID,118,VALID,0,
2015-06-28, 08:07:04,VALID,922.186,VALID,0,VALID,71.1722,VALID,262.694,VALID,22.7055,VALID,118,VALID,0,
2015-06-28, 08:08:04,VALID,922.17,VALID,0,VALID,69.9906,VALID,266.347,VALID,22.8243,VALID,118,VALID,0,
2015-06-28, 08:09:04,VALID,922.147,VALID,0,VALID,71.2027,VALID,269.462,VALID,22.9787,VALID,118,VALID,0,
2015-06-28, 08:10:04,VALID,922.143,VALID,0,VALID,70.8215,VALID,272.256,VALID,23.2325,VALID,118,VALID,0,
2015-06-28, 08:11:04,VALID,922.154,VALID,0,VALID,68.8928,VALID,275.157,VALID,23.3691,VALID,118,VALID,0,
2015-06-28, 08:12:04,VALID,922.166,VALID,0,VALID,70.1812,VALID,276.231,VALID,23.4863,VALID,119,VALID,0,
2015-06-28, 08:13:04,VALID,922.178,VALID,0,VALID,65.043,VALID,280.851,VALID,23.5839,VALID,118,VALID,0,
2015-06-28, 08:14:04,VALID,922.175,VALID,0,VALID,66.2551,VALID,284.182,VALID,23.6229,VALID,119,VALID,0,
2015-06-28, 08:15:04,VALID,922.191,VALID,0,VALID,66.9107,VALID,287.513,VALID,23.543,VALID,119,VALID,0,
2015-06-28, 08:16:04,VALID,922.223,VALID,0,VALID,66.9641,VALID,290.736,VALID,23.504,VALID,118,VALID,0,
2015-06-28, 08:17:04,VALID,922.225,VALID,0,VALID,67.9704,VALID,294.174,VALID,23.4082,VALID,118,VALID,0,
2015-06-28, 08:18:04,VALID,922.265,VALID,0,VALID,68.0695,VALID,297.075,VALID,23.3283,VALID,118,VALID,0,
2015-06-28, 08:19:04,VALID,922.273,VALID,0,VALID,65.973,VALID,299.653,VALID,23.3674,VALID,118,VALID,0,
2015-06-28, 08:20:04,VALID,922.294,VALID,0,VALID,68.2296,VALID,302.662,VALID,23.4259,VALID,118,VALID,0,
2015-06-28, 08:21:04,VALID,922.247,VALID,0,VALID,68.2524,VALID,305.778,VALID,23.5235,VALID,118,VALID,0,
2015-06-28, 08:22:04,VALID,922.262,VALID,0,VALID,68.6794,VALID,308.678,VALID,23.7382,VALID,118,VALID,0,
2015-06-28, 08:23:04,VALID,922.273,VALID,0,VALID,67.2462,VALID,312.224,VALID,23.9139,VALID,118,VALID,0,
2015-06-28, 08:24:04,VALID,922.251,VALID,0,VALID,64.738,VALID,315.447,VALID,24.0683,VALID,115,VALID,0,
2015-06-28, 08:25:04,VALID,922.258,VALID,0,VALID,65.569,VALID,318.563,VALID,24.1873,VALID,115,VALID,0,
2015-06-28, 08:26:04,VALID,922.259,VALID,0,VALID,65.2717,VALID,321.464,VALID,24.1287,VALID,115,VALID,0,
2015-06-28, 08:27:04,VALID,922.274,VALID,0,VALID,67.147,VALID,324.043,VALID,24.0097,VALID,115,VALID,0,
2015-06-28, 08:28:04,VALID,922.326,VALID,0,VALID,64.4331,VALID,327.91,VALID,24.0488,VALID,115,VALID,0,
2015-06-28, 08:29:04,VALID,922.328,VALID,0,VALID,65.0811,VALID,331.026,VALID,23.992,VALID,115,VALID,0,
2015-06-28, 08:30:04,VALID,922.35,VALID,0,VALID,65.8816,VALID,334.249,VALID,23.8145,VALID,129,VALID,0,
2015-06-28, 08:31:04,VALID,922.353,VALID,0,VALID,65.8816,VALID,337.365,VALID,23.7169,VALID,128,VALID,0,
2015-06-28, 08:32:04,VALID,922.372,VALID,0,VALID,66.9717,VALID,340.266,VALID,23.756,VALID,128,VALID,0,
2015-06-28, 08:33:04,VALID,922.369,VALID,0,VALID,67.7493,VALID,342.737,VALID,23.9121,VALID,103,VALID,0,
2015-06-28, 08:34:04,VALID,922.389,VALID,0,VALID,63.8918,VALID,345.638,VALID,24.0097,VALID,32,VALID,0,
2015-06-28, 08:35:04,VALID,922.37,VALID,0,VALID,64.5627,VALID,348.002,VALID,23.992,VALID,32,VALID,0,
2015-06-28, 08:36:04,VALID,922.396,VALID,0,VALID,60.4384,VALID,351.333,VALID,23.953,VALID,9,VALID,0.340234,
2015-06-28, 08:37:04,VALID,922.421,VALID,0,VALID,64.2044,VALID,354.126,VALID,23.992,VALID,1,VALID,0,
2015-06-28, 08:38:04,VALID,922.472,VALID,0,VALID,64.0519,VALID,357.349,VALID,23.8163,VALID,1,VALID,0,
2015-06-28, 08:39:04,VALID,922.46,VALID,0,VALID,64.921,VALID,359.928,VALID,23.504,VALID,1,VALID,0,
2015-06-28, 08:40:04,VALID,922.477,VALID,0,VALID,67.2995,VALID,363.366,VALID,23.3088,VALID,1,VALID,0,
2015-06-28, 08:41:04,VALID,922.495,VALID,0,VALID,66.5753,VALID,366.482,VALID,23.2698,VALID,1,VALID,0,
2015-06-28, 08:42:04,VALID,922.51,VALID,0,VALID,66.865,VALID,369.275,VALID,23.2307,VALID,1,VALID,0,
2015-06-28, 08:43:04,VALID,922.551,VALID,0,VALID,68.4202,VALID,372.606,VALID,23.1917,VALID,1,VALID,0,
2015-06-28, 08:44:04,VALID,922.534,VALID,0,VALID,67.7417,VALID,375.292,VALID,23.1509,VALID,1,VALID,0,
2015-06-28, 08:45:04,VALID,922.497,VALID,0,VALID,67.6883,VALID,379.052,VALID,23.1917,VALID,1,VALID,0,
2015-06-28, 08:46:04,VALID,922.486,VALID,0,VALID,65.8816,VALID,382.061,VALID,23.4046,VALID,1,VALID,0,
2015-06-28, 08:47:04,VALID,922.5,VALID,0,VALID,67.513,VALID,385.714,VALID,23.7169,VALID,1,VALID,0,
2015-06-28, 08:48:04,VALID,922.462,VALID,0,VALID,64.8676,VALID,388.4,VALID,24.0311,VALID,358,VALID,0,
2015-06-28, 08:49:04,VALID,922.478,VALID,0,VALID,65.2793,VALID,391.408,VALID,24.2049,VALID,17,VALID,0.119922,
2015-06-28, 08:50:04,VALID,922.484,VALID,0,VALID,64.4179,VALID,394.524,VALID,24.2635,VALID,9,VALID,0.103906,
2015-06-28, 08:51:04,VALID,922.479,VALID,0,VALID,59.9353,VALID,397.64,VALID,24.4002,VALID,20,VALID,0,
2015-06-28, 08:52:04,VALID,922.494,VALID,0,VALID,62.451,VALID,400.97,VALID,24.4197,VALID,9,VALID,0,
2015-06-28, 08:53:04,VALID,922.482,VALID,0,VALID,59.7981,VALID,404.623,VALID,24.5564,VALID,347,VALID,0.225391,
2015-06-28, 08:54:04,VALID,922.48,VALID,0,VALID,59.516,VALID,407.417,VALID,24.5759,VALID,346,VALID,0.189453,
2015-06-28, 08:55:04,VALID,922.445,VALID,0,VALID,60.3546,VALID,410.318,VALID,24.5564,VALID,354,VALID,0.952734,
2015-06-28, 08:56:04,VALID,922.447,VALID,0,VALID,59.0815,VALID,412.789,VALID,24.4978,VALID,345,VALID,1.13437,
2015-06-28, 08:57:04,VALID,922.448,VALID,0,VALID,56.116,VALID,415.153,VALID,24.4197,VALID,347,VALID,1.30156,
2015-06-28, 08:58:04,VALID,922.453,VALID,0,VALID,60.3317,VALID,417.839,VALID,24.3416,VALID,27,VALID,0.949219,
2015-06-28, 08:59:04,VALID,922.425,VALID,0,VALID,61.4981,VALID,420.632,VALID,24.3825,VALID,17,VALID,0.272266,
2015-06-28, 09:00:04,VALID,922.438,VALID,0,VALID,61.216,VALID,423.64,VALID,24.4197,VALID,29,VALID,0,
2015-06-28, 09:01:04,VALID,922.446,VALID,0,VALID,62.1995,VALID,427.616,VALID,24.4978,VALID,2,VALID,0,
2015-06-28, 09:02:04,VALID,922.444,VALID,0,VALID,61.8411,VALID,431.054,VALID,24.5564,VALID,7,VALID,0.165234,
2015-06-28, 09:03:04,VALID,922.44,VALID,0,VALID,58.4487,VALID,433.31,VALID,24.654,VALID,16,VALID,0.442187,
2015-06-28, 09:04:04,VALID,922.474,VALID,0,VALID,61.4828,VALID,436.748,VALID,24.654,VALID,320,VALID,0,
2015-06-28, 09:05:04,VALID,922.458,VALID,0,VALID,60.7129,VALID,439.649,VALID,24.5564,VALID,6,VALID,0.820703,
2015-06-28, 09:06:04,VALID,922.451,VALID,0,VALID,60.0496,VALID,442.98,VALID,24.5173,VALID,349,VALID,0.18125,
2015-06-28, 09:07:04,VALID,922.501,VALID,0,VALID,59.333,VALID,445.773,VALID,24.535,VALID,336,VALID,0.473437,
2015-06-28, 09:08:04,VALID,922.484,VALID,0,VALID,59.2034,VALID,448.459,VALID,24.6345,VALID,3,VALID,0.414063,
2015-06-28, 09:09:04,VALID,922.512,VALID,0,VALID,62.1232,VALID,451.038,VALID,24.7107,VALID,358,VALID,0,
2015-06-28, 09:10:04,VALID,922.458,VALID,0,VALID,59.0891,VALID,453.617,VALID,24.8883,VALID,36,VALID,0.757422,
2015-06-28, 09:11:04,VALID,922.487,VALID,0,VALID,57.3662,VALID,456.517,VALID,25.0426,VALID,16,VALID,0.285547,
2015-06-28, 09:12:04,VALID,922.494,VALID,0,VALID,60.4689,VALID,458.881,VALID,25.1226,VALID,25,VALID,0.0683594,
2015-06-28, 09:13:04,VALID,922.492,VALID,0,VALID,59.6837,VALID,461.675,VALID,25.1598,VALID,352,VALID,0,
2015-06-28, 09:14:04,VALID,922.506,VALID,0,VALID,59.2339,VALID,465.328,VALID,25.1598,VALID,28,VALID,1.57969,
2015-06-28, 09:15:04,VALID,922.518,VALID,0,VALID,57.8922,VALID,467.691,VALID,25.2379,VALID,9,VALID,0.482812,
2015-06-28, 09:16:04,VALID,922.493,VALID,0,VALID,58.6622,VALID,470.592,VALID,25.1226,VALID,10,VALID,0.568359,
2015-06-28, 09:17:04,VALID,922.526,VALID,0,VALID,55.7195,VALID,472.956,VALID,24.9645,VALID,9,VALID,1.74375,
2015-06-28, 09:18:04,VALID,922.536,VALID,0,VALID,60.2479,VALID,475.105,VALID,24.8474,VALID,18,VALID,1.48438,
2015-06-28, 09:19:04,VALID,922.554,VALID,0,VALID,61.2846,VALID,477.898,VALID,24.8669,VALID,348,VALID,0.0105469,
2015-06-28, 09:20:04,VALID,922.554,VALID,0,VALID,60.3317,VALID,479.832,VALID,24.9274,VALID,9,VALID,1.0207,
2015-06-28, 09:21:04,VALID,922.57,VALID,0,VALID,60.8272,VALID,481.766,VALID,24.8474,VALID,30,VALID,0.670313,
2015-06-28, 09:22:04,VALID,922.574,VALID,0,VALID,61.521,VALID,485.097,VALID,24.8278,VALID,352,VALID,1.49375,
2015-06-28, 09:23:04,VALID,922.574,VALID,0,VALID,59.3026,VALID,487.031,VALID,24.7693,VALID,342,VALID,0.640625,
2015-06-28, 09:24:04,VALID,922.588,VALID,0,VALID,60.0344,VALID,490.791,VALID,24.8278,VALID,333,VALID,0.48125,
2015-06-28, 09:25:04,VALID,922.579,VALID,0,VALID,60.9645,VALID,492.403,VALID,24.8259,VALID,3,VALID,0.799219,
2015-06-28, 09:26:04,VALID,922.567,VALID,0,VALID,60.7662,VALID,495.519,VALID,24.8864,VALID,43,VALID,1.48242,
2015-06-28, 09:27:04,VALID,922.566,VALID,0,VALID,59.9124,VALID,497.99,VALID,24.865,VALID,3,VALID,2.10938,
2015-06-28, 09:28:04,VALID,922.585,VALID,0,VALID,59.1272,VALID,500.676,VALID,24.9255,VALID,337,VALID,0,
2015-06-28, 09:29:04,VALID,922.621,VALID,0,VALID,61.9555,VALID,502.287,VALID,25.0231,VALID,3,VALID,0.207813,
2015-06-28, 09:30:04,VALID,922.626,VALID,0,VALID,60.7053,VALID,504.866,VALID,25.2183,VALID,21,VALID,1.10312,
2015-06-28, 09:31:04,VALID,922.616,VALID,0,VALID,59.7905,VALID,508.304,VALID,25.3941,VALID,343,VALID,0.107813,
2015-06-28, 09:32:04,VALID,922.618,VALID,0,VALID,59.1653,VALID,511.098,VALID,25.4331,VALID,14,VALID,1.54375,
2015-06-28, 09:33:04,VALID,922.62,VALID,0,VALID,59.7828,VALID,514.106,VALID,25.4331,VALID,355,VALID,0,
2015-06-28, 09:34:04,VALID,922.623,VALID,0,VALID,60.5604,VALID,516.362,VALID,25.3355,VALID,23,VALID,2.20313,
2015-06-28, 09:35:04,VALID,922.611,VALID,0,VALID,59.8514,VALID,519.585,VALID,25.2965,VALID,8,VALID,1.04922,
2015-06-28, 09:36:04,VALID,922.595,VALID,0,VALID,61.0407,VALID,521.304,VALID,25.1988,VALID,17,VALID,0.760938,
2015-06-28, 09:37:04,VALID,922.598,VALID,0,VALID,60.9492,VALID,521.519,VALID,25.2984,VALID,27,VALID,0.126953,
2015-06-28, 09:38:04,VALID,922.603,VALID,0,VALID,59.6532,VALID,524.85,VALID,25.4156,VALID,9,VALID,1.44023,
2015-06-28, 09:39:04,VALID,922.6,VALID,0,VALID,60.1183,VALID,527.214,VALID,25.3765,VALID,28,VALID,1.02852,
2015-06-28, 09:40:04,VALID,922.616,VALID,0,VALID,59.2339,VALID,530.437,VALID,25.3941,VALID,10,VALID,0.040625,
2015-06-28, 09:41:04,VALID,922.651,VALID,0,VALID,58.9519,VALID,531.941,VALID,25.3746,VALID,28,VALID,0.192969,
2015-06-28, 09:42:04,VALID,922.651,VALID,0,VALID,60.0649,VALID,536.454,VALID,25.4741,VALID,33,VALID,0.0304688,
2015-06-28, 09:43:04,VALID,922.67,VALID,0,VALID,60.0954,VALID,538.817,VALID,25.6694,VALID,8,VALID,0.158984,
2015-06-28, 09:44:04,VALID,922.66,VALID,0,VALID,57.5187,VALID,542.363,VALID,25.8843,VALID,8,VALID,0,
2015-06-28, 09:45:04,VALID,922.682,VALID,0,VALID,56.1083,VALID,544.727,VALID,25.9624,VALID,333,VALID,0,
2015-06-28, 09:46:04,VALID,922.669,VALID,0,VALID,55.7195,VALID,547.52,VALID,25.9624,VALID,322,VALID,0,
2015-06-28, 09:47:04,VALID,922.695,VALID,0,VALID,56.4438,VALID,549.669,VALID,25.9604,VALID,304,VALID,0,
2015-06-28, 09:48:04,VALID,922.744,VALID,0,VALID,57.3433,VALID,552.57,VALID,25.98,VALID,304,VALID,0,
2015-06-28, 09:49:04,VALID,922.722,VALID,0,VALID,55.1325,VALID,555.256,VALID,25.982,VALID,303,VALID,0,
2015-06-28, 09:50:04,VALID,922.718,VALID,0,VALID,54.355,VALID,557.297,VALID,25.9995,VALID,303,VALID,0,
2015-06-28, 09:51:04,VALID,922.716,VALID,0,VALID,53.7908,VALID,559.016,VALID,26.1167,VALID,268,VALID,0,
2015-06-28, 09:52:04,VALID,922.756,VALID,0,VALID,53.7298,VALID,561.917,VALID,26.3706,VALID,339,VALID,0,
2015-06-28, 09:53:04,VALID,922.777,VALID,0,VALID,51.7554,VALID,564.388,VALID,26.4683,VALID,294,VALID,0,
2015-06-28, 09:54:04,VALID,922.747,VALID,0,VALID,52.7617,VALID,567.612,VALID,26.3336,VALID,37,VALID,0,
2015-06-28, 09:55:04,VALID,922.789,VALID,0,VALID,52.4186,VALID,569.008,VALID,26.2925,VALID,20,VALID,0,
2015-06-28, 09:56:04,VALID,922.791,VALID,0,VALID,53.9662,VALID,572.446,VALID,26.2339,VALID,17,VALID,0.0078125,
2015-06-28, 09:57:04,VALID,922.8,VALID,0,VALID,53.0361,VALID,575.025,VALID,26.1753,VALID,18,VALID,0.3625,
2015-06-28, 09:58:04,VALID,922.802,VALID,0,VALID,53.1733,VALID,577.496,VALID,26.2534,VALID,16,VALID,0.303516,
2015-06-28, 09:59:04,VALID,922.813,VALID,0,VALID,51.3132,VALID,579.752,VALID,26.2925,VALID,304,VALID,0.294141,
2015-06-28, 10:00:04,VALID,922.808,VALID,0,VALID,53.0285,VALID,582.438,VALID,25.9409,VALID,301,VALID,0.196484,
2015-06-28, 10:01:04,VALID,922.808,VALID,0,VALID,52.6931,VALID,582.976,VALID,25.7827,VALID,341,VALID,0,
2015-06-28, 10:02:04,VALID,922.818,VALID,0,VALID,53.3029,VALID,586.414,VALID,25.8022,VALID,309,VALID,0.0871094,
2015-06-28, 10:03:04,VALID,922.792,VALID,0,VALID,54.7438,VALID,588.348,VALID,25.7066,VALID,354,VALID,0,
2015-06-28, 10:04:04,VALID,922.796,VALID,0,VALID,53.8899,VALID,590.711,VALID,25.8042,VALID,16,VALID,1.08438,
2015-06-28, 10:05:04,VALID,922.785,VALID,0,VALID,55.0716,VALID,593.183,VALID,26.0757,VALID,344,VALID,0.0160156,
2015-06-28, 10:06:04,VALID,922.791,VALID,0,VALID,52.3729,VALID,594.687,VALID,26.0952,VALID,298,VALID,0,
2015-06-28, 10:07:04,VALID,922.75,VALID,0,VALID,52.3881,VALID,597.373,VALID,26.0952,VALID,311,VALID,0,
2015-06-28, 10:08:04,VALID,922.739,VALID,0,VALID,55.0944,VALID,599.737,VALID,26.0366,VALID,311,VALID,0,
2015-06-28, 10:09:04,VALID,922.734,VALID,0,VALID,56.581,VALID,602.96,VALID,26.1928,VALID,56,VALID,0,
2015-06-28, 10:10:04,VALID,922.739,VALID,0,VALID,52.9904,VALID,603.712,VALID,26.4468,VALID,37,VALID,0,
2015-06-28, 10:11:04,VALID,922.723,VALID,0,VALID,52.106,VALID,606.076,VALID,26.3296,VALID,298,VALID,0.235547,
2015-06-28, 10:12:04,VALID,922.722,VALID,0,VALID,54.3397,VALID,608.439,VALID,26.0171,VALID,291,VALID,0,
2015-06-28, 10:13:04,VALID,922.739,VALID,0,VALID,54.3626,VALID,610.266,VALID,25.9389,VALID,289,VALID,0,
2015-06-28, 10:14:04,VALID,922.685,VALID,0,VALID,54.2711,VALID,611.77,VALID,25.8804,VALID,290,VALID,0,
2015-06-28, 10:15:04,VALID,922.735,VALID,0,VALID,56.4361,VALID,614.671,VALID,25.8608,VALID,293,VALID,0,
2015-06-28, 10:16:04,VALID,922.714,VALID,0,VALID,55.3308,VALID,616.712,VALID,25.9585,VALID,353,VALID,0,
2015-06-28, 10:17:04,VALID,922.669,VALID,0,VALID,54.3854,VALID,617.464,VALID,26.0952,VALID,322,VALID,0,
2015-06-28, 10:18:04,VALID,922.687,VALID,0,VALID,56.1846,VALID,619.935,VALID,26.1362,VALID,7,VALID,0.492188,
2015-06-28, 10:19:04,VALID,922.69,VALID,0,VALID,54.576,VALID,623.481,VALID,26.2514,VALID,9,VALID,0.0515625,
2015-06-28, 10:20:04,VALID,922.709,VALID,0,VALID,52.876,VALID,625.63,VALID,26.3686,VALID,298,VALID,0.00273437,
2015-06-28, 10:21:04,VALID,922.693,VALID,0,VALID,52.5101,VALID,627.456,VALID,26.2905,VALID,289,VALID,0,
2015-06-28, 10:22:04,VALID,922.713,VALID,0,VALID,55.3079,VALID,628.961,VALID,26.1362,VALID,284,VALID,0,
2015-06-28, 10:23:04,VALID,922.738,VALID,0,VALID,54.1339,VALID,630.465,VALID,26.0776,VALID,310,VALID,0,
2015-06-28, 10:24:04,VALID,922.716,VALID,0,VALID,54.1491,VALID,633.043,VALID,26.0581,VALID,310,VALID,0.0550781,
2015-06-28, 10:25:04,VALID,922.734,VALID,0,VALID,54.1034,VALID,633.795,VALID,25.8823,VALID,282,VALID,0,
2015-06-28, 10:26:04,VALID,922.716,VALID,0,VALID,54.6218,VALID,636.696,VALID,25.9585,VALID,275,VALID,0,
2015-06-28, 10:27:04,VALID,922.741,VALID,0,VALID,55.1249,VALID,637.556,VALID,26.0366,VALID,285,VALID,0,
2015-06-28, 10:28:04,VALID,922.701,VALID,0,VALID,53.1733,VALID,640.134,VALID,26.1362,VALID,267,VALID,0,
2015-06-28, 10:29:04,VALID,922.728,VALID,0,VALID,53.0971,VALID,642.283,VALID,26.2339,VALID,294,VALID,0.634375,
2015-06-28, 10:30:04,VALID,922.706,VALID,0,VALID,56.0169,VALID,643.358,VALID,26.0952,VALID,339,VALID,0,
2015-06-28, 10:31:04,VALID,922.685,VALID,0,VALID,56.1388,VALID,644.754,VALID,26.31,VALID,3,VALID,0,
2015-06-28, 10:32:04,VALID,922.682,VALID,0,VALID,54.4083,VALID,648.3,VALID,26.5249,VALID,348,VALID,0,
2015-06-28, 10:33:04,VALID,922.694,VALID,0,VALID,53.1505,VALID,650.234,VALID,26.5444,VALID,324,VALID,0,
2015-06-28, 10:34:04,VALID,922.667,VALID,0,VALID,52.5635,VALID,652.598,VALID,26.3882,VALID,308,VALID,0,
2015-06-28, 10:35:04,VALID,922.695,VALID,0,VALID,54.5227,VALID,653.135,VALID,26.2905,VALID,317,VALID,0,
2015-06-28, 10:36:04,VALID,922.661,VALID,0,VALID,56.4057,VALID,654.639,VALID,26.308,VALID,253,VALID,0,
2015-06-28, 10:37:04,VALID,922.608,VALID,0,VALID,53.7756,VALID,656.465,VALID,26.314,VALID,5,VALID,0,
2015-06-28, 10:38:04,VALID,922.645,VALID,0,VALID,53.6384,VALID,657.11,VALID,26.2925,VALID,298,VALID,0.142188,
2015-06-28, 10:39:04,VALID,922.622,VALID,0,VALID,55.407,VALID,660.441,VALID,26.2144,VALID,319,VALID,0,
2015-06-28, 10:40:04,VALID,922.602,VALID,0,VALID,56.2379,VALID,663.664,VALID,26.3316,VALID,261,VALID,0,
2015-06-28, 10:41:04,VALID,922.632,VALID,0,VALID,55.3003,VALID,665.061,VALID,26.2339,VALID,261,VALID,0,
2015-06-28, 10:42:04,VALID,922.591,VALID,0,VALID,53.1276,VALID,664.846,VALID,26.2925,VALID,346,VALID,0.59375,
2015-06-28, 10:43:04,VALID,922.588,VALID,0,VALID,51.4428,VALID,666.887,VALID,26.5289,VALID,348,VALID,0,
2015-06-28, 10:44:04,VALID,922.584,VALID,0,VALID,53.2724,VALID,666.78,VALID,26.605,VALID,335,VALID,0,
2015-06-28, 10:45:04,VALID,922.554,VALID,0,VALID,51.4886,VALID,669.036,VALID,26.7223,VALID,310,VALID,0.439063,
2015-06-28, 10:46:04,VALID,922.534,VALID,0,VALID,51.3742,VALID,670.97,VALID,26.6636,VALID,324,VALID,0,
2015-06-28, 10:47:04,VALID,922.523,VALID,0,VALID,49.8266,VALID,673.119,VALID,26.7223,VALID,200,VALID,0,
2015-06-28, 10:48:04,VALID,922.498,VALID,0,VALID,51.1531,VALID,675.483,VALID,26.7809,VALID,185,VALID,0,
2015-06-28, 10:49:04,VALID,922.498,VALID,0,VALID,52.4339,VALID,678.383,VALID,26.7613,VALID,181,VALID,0.0914062,